Location: Six Mile Lake
(44.9000°N, 79.7170°W)
Time: 19:04:08
(UTC-04:00)

ESTCUBE 1 - Pass Details

Date: 06 July 2022
Orbit: 646 x 657 km, 97.9° (Epoch: 07 August)

Event Time Altitude Azimuth Distance (km) Brightness Sun altitude
Exits shadow 23:07:14 27° 144° (SE) 1,229 ? -15.7°
Maximum altitude 23:09:30 61° 73° (ENE) 738 ? -15.9°
Drops below altitude 10° 23:13:56 10° 354° (N) 2,062 ? -16.3°
Sets 23:16:10 0° 351° (N) 2,979 ? -16.5°
